CAPE
0 0 0 0 0 0 0 0 0 0 0 1 432 376 146 20 0 0 0 0 0 0 0 0 0 0 0 0 0 0 0 0 2 0 1 0 0 0 2 23 0 0 0
0 0 0 0 0 0 0 0 0 0 0 5 6 20 433 166 37 4 0 0 0 0 0 0 0 0 0 0 0 0 0 0 0 0 0 14 1 2 0 4 12 3 1
0 0 0 0 0 0 0 0 0 0 0 0 3 6 307 408 88 2 0 0 0 0 0 0 0 0 0 0 0 0 0 0 0 0 0 0 0 0 0 0 1 3 0
0 0 0 0 0 0 0 0 0 0 0 0 2 6 18 57 413 139 36 0 0 0 0 0 0 0 0 0 0 0 0 0 0 0 0 0 0 0 0 0 0 1 12
0 0 0 0 0 0 0 0 0 0 0 0 0 8 10 21 9 380 132 35 0 0 0 0 0 0 0 0 0 0 0 0 0 0 0 0 0 0 0 0 0 0 0
0 0 0 0 0 0 0 0 0 0 0 0 0 1 8 6 7 13 149 36 11 0 0 0 0 0 0 0 0 0 0 0 0 0 0 0 0 0 0 0 1 1 0
0 0 0 0 0 0 0 2 1 1 0 0 0 2 6 8 13 5 47 165 27 1 0 0 0 0 0 0 0 0 0 0 0 0 0 0 0 0 0 0 0 0 0
0 0 0 0 0 0 0 1 2 2 1 2 0 1 7 10 11 7 3 206 99 3 2 1 0 0 0 0 0 0 0 0 0 0 0 0 0 0 0 0 0 0 0
0 0 0 0 0 0 0 1 4 2 2 2 3 1 3 7 10 7 3 38 154 55 4 0 0 0 0 0 0 0 0 0 0 0 0 0 0 0 0 0 0 0 0
0 0 0 0 0 0 0 0 1 3 2 2 3 6 3 4 9 11 4 6 93 66 40 3 1 0 0 0 0 0 0 0 0 0 0 0 0 0 0 0 0 0 0
0 0 0 0 0 0 0 0 1 3 3 2 4 6 5 5 8 10 3 6 32 28 24 1 1 0 0 1 0 0 0 0 0 0 0 0 0 0 0 0 0 0 0
0 0 0 0 0 0 0 0 0 0 1 4 6 7 6 7 8 13 4 7 5 36 18 2 1 1 0 0 0 0 0 0 0 0 0 0 0 0 0 0 0 0 0
0 0 0 0 0 0 0 0 0 0 2 2 3 6 6 8 6 10 7 2 3 74 67 26 6 0 1 1 0 0 0 0 0 0 0 0 0 0 0 0 0 0 0
0 0 0 0 0 0 0 0 0 0 1 2 1 6 6 8 6 8 5 5 5 2 103 29 27 2 1 1 0 0 0 0 0 0 0 0 0 0 0 0 0 0 0
3 2 0 0 0 0 0 0 0 0 1 0 0 3 4 7 6 8 7 7 1 0 43 88 42 23 13 4 1 0 1 0 0 0 0 0 0 0 0 0 0 0 0
2 3 2 1 0 0 0 0 0 0 0 0 0 2 4 5 6 5 6 6 4 1 1 150 121 105 39 3 0 0 0 0 0 0 0 0 0 0 0 0 0 0 0
0 1 0 0 0 0 0 0 0 0 0 0 0 0 2 3 3 5 6 4 1 0 3 106 126 117 70 0 0 0 1 3 0 0 0 0 0 0 0 0 0 0 0
0 0 0 0 0 0 0 0 0 0 0 0 0 0 0 1 2 3 4 3 2 1 1 9 75 51 0 0 0 0 2 2 0 0 2 0 0 0 0 0 0 0 0
0 0 0 0 0 0 0 0 0 0 0 0 0 0 0 0 0 1 2 2 3 1 2 0 19 42 6 0 0 0 0 0 0 0 0 0 0 0 0 0 0 0 0
0 0 0 0 0 0 0 0 0 0 0 0 0 0 0 0 0 0 1 0 1 3 1 1 0 2 0 0 1 0 0 0 0 0 0 0 0 0 0 0 0 0 0
0 0 0 0 0 0 0 0 0 0 0 0 0 0 0 0 0 0 0 0 0 0 0 0 0 1 2 1 0 0 0 0 0 0 0 0 0 0 0 0 0 0 0
1 2 0 0 0 0 0 0 0 0 0 0 0 0 0 0 0 0 0 0 0 0 0 0 0 0 1 6 4 1 0 0 0 0 0 0 1 0 0 0 0 0 0
0 0 0 0 0 0 0 0 0 0 0 0 0 0 0 0 0 0 0 0 0 0 0 0 0 0 0 0 5 6 1 0 0 0 0 0 1 0 0 0 0 0 0
0 0 0 0 0 0 1 0 0 0 0 0 0 0 0 1 0 0 0 0 0 0 0 0 0 0 0 0 0 0 0 0 1 1 0 0 0 0 0 0 0 0 0
0 0 0 0 0 0 0 0 1 0 0 0 0 0 0 0 0 0 0 1 2 19 2 1 0 1 1 3 12 6 1 0 1 0 0 0 0 0 0 0 0 1 0
0 0 0 0 0 0 0 0 0 0 0 0 2 0 0 0 0 0 0 10 24 24 32 39 24 4 32 34 26 20 13 9 1 0 0 0 0 0 0 0 0 0 0
CIN
-0 -0 -0 -0 -0 -0 -0 -0 -0 -0 -0 -0 -9 -0 -22 -96 -0 -0 -0 -0 -0 -0 -0 -0 -0 -0 -0 -0 -0 -0 -0 -0 -116 -0 -109 -0 -0 -0 -54 -44 -0 -0 -0
-0 -0 -0 -0 -0 -0 -0 -0 -0 -0 -0 -0 -0 -12 -3 -36 -110 -76 -0 -0 -0 -0 -0 -0 -0 -0 -0 -0 -0 -0 -0 -0 -81 -0 -0 -19 -6 -68 -0 -39 -26 -21 -76
-0 -0 -0 -0 -0 -0 -0 -0 -0 -0 -0 -0 -0 -0 -0 -6 -36 -18 -0 -0 -0 -0 -0 -0 -0 -0 -0 -0 -0 -0 -0 -0 -0 -0 -0 -0 -0 -0 -0 -0 -22 -37 -16
-0 -0 -0 -0 -0 -0 -0 -0 -0 -0 -0 -0 -0 -0 -0 -0 -1 -26 -69 -0 -0 -0 -0 -0 -0 -0 -0 -0 -0 -0 -0 -0 -0 -0 -0 -0 -0 -0 -0 -0 -0 -55 -45
-0 -0 -0 -0 -0 -0 -0 -0 -0 -0 -0 -0 -0 -0 -0 -0 -0 -3 -28 -68 -0 -0 -0 -0 -0 -0 -0 -0 -0 -0 -0 -0 -0 -0 -0 -0 -0 -0 -0 -0 -1 -0 -0
-0 -0 -0 -0 -0 -0 -0 -0 -0 -0 -0 -0 -0 -0 -0 -0 -0 -49 -11 -31 -69 -0 -0 -0 -0 -0 -0 -0 -0 -0 -0 -0 -0 -0 -0 -0 -0 -0 -0 -0 -0 -0 -0
-0 -0 -0 -0 -0 -0 -0 -0 -0 -0 -0 -0 -0 -0 -0 -0 -0 -0 -11 -6 -16 -0 -0 -0 -0 -0 -0 -0 -0 -0 -0 -0 -0 -0 -0 -0 -0 -0 -0 -0 -0 -0 -0
-0 -0 -0 -0 -0 -0 -0 -0 -0 -0 -0 -0 -0 -0 -0 -0 -0 -0 -0 -7 -5 -11 -19 -0 -0 -0 -0 -0 -0 -0 -0 -0 -0 -0 -0 -0 -0 -0 -0 -0 -0 -0 -0
-0 -0 -0 -0 -0 -0 -0 -0 -0 -0 -0 -0 -0 -0 -0 -0 -0 -0 -0 -1 -11 -15 -12 -1 -1 -1 -0 -0 -0 -0 -0 -0 -0 -0 -0 -0 -0 -0 -0 -0 -0 -0 -0
-0 -0 -0 -0 -0 -0 -0 -1 -0 -0 -0 -0 -0 -0 -0 -0 -0 -0 -0 -0 -4 -23 -11 -18 -2 -1 -0 -0 -0 -0 -0 -0 -0 -0 -0 -0 -0 -0 -0 -0 -0 -0 -0
-0 -0 -0 -0 -0 -0 -0 -0 -0 -0 -0 -0 -0 -0 -0 -0 -0 -0 -0 -0 -11 -47 -42 -11 -13 -0 -0 -0 -0 -0 -0 -0 -0 -0 -0 -0 -0 -0 -0 -0 -0 -0 -0
-0 -0 -0 -0 -0 -0 -0 -0 -1 -0 -0 -0 -0 -0 -0 -0 -0 -0 -0 -0 -0 -31 -57 -64 -30 -0 -0 -1 -0 -0 -0 -0 -0 -0 -0 -0 -0 -0 -0 -0 -0 -0 -0
-0 -0 -0 -0 -0 -0 -0 -0 -0 -0 -0 -0 -0 -0 -0 -0 -0 -0 -0 -0 -0 -1 -35 -55 -70 -2 -0 -3 -0 -0 -0 -0 -0 -0 -0 -0 -0 -0 -0 -0 -0 -0 -0
-0 -0 -0 -0 -0 -0 -0 -0 -0 -0 -0 -0 -0 -0 -0 -0 -0 -0 -0 -0 -0 -0 -1 -38 -78 -59 -13 -0 -0 -1 -0 -0 -0 -0 -0 -0 -0 -0 -0 -0 -0 -0 -0
-0 -0 -0 -0 -0 -0 -0 -0 -0 -0 -0 -0 -0 -0 -0 -0 -0 -0 -0 -0 -0 -0 -99 -13 -47 -58 -41 -3 -3 -0 -0 -0 -0 -0 -0 -0 -0 -0 -0 -0 -0 -0 -0
-0 -0 -0 -0 -0 -0 -0 -0 -0 -0 -0 -0 -0 -0 -0 -0 -0 -0 -0 -0 -0 -0 -0 -3 -31 -22 -25 -36 -0 -0 -0 -0 -0 -0 -0 -0 -0 -0 -0 -0 -0 -0 -0
-0 -0 -0 -0 -0 -0 -0 -0 -0 -0 -0 -0 -0 -0 -0 -0 -0 -0 -0 -0 -0 -0 -0 -4 -28 -20 -19 -0 -0 -0 -20 -108 -0 -0 -0 -0 -0 -0 -0 -0 -0 -0 -0
-0 -0 -0 -0 -0 -0 -0 -0 -0 -0 -0 -0 -0 -0 -0 -0 -0 -0 -0 -0 -0 -0 -0 -24 -21 -36 -0 -0 -0 -0 -38 -93 -0 -0 -89 -0 -0 -0 -0 -0 -0 -0 -0
-0 -0 -0 -0 -0 -0 -0 -0 -0 -0 -0 -0 -0 -0 -0 -0 -0 -0 -0 -0 -0 -0 -0 -0 -18 -19 -59 -0 -0 -0 -0 -0 -0 -0 -4 -11 -0 -0 -0 -0 -0 -0 -0
-0 -0 -0 -0 -0 -0 -0 -0 -0 -0 -0 -0 -0 -0 -0 -0 -0 -0 -0 -0 -0 -0 -0 -0 -0 -0 -0 -0 -0 -0 -0 -0 -0 -0 -0 -0 -0 -0 -0 -0 -0 -0 -0
-1 -0 -0 -0 -0 -0 -0 -0 -0 -0 -0 -0 -0 -0 -0 -0 -0 -0 -0 -0 -0 -0 -0 -0 -0 -0 -0 -0 -0 -0 -0 -0 -0 -0 -0 -0 -0 -0 -0 -0 -0 -0 -0
-0 -0 -0 -0 -0 -0 -0 -0 -0 -0 -0 -0 -0 -0 -0 -0 -0 -0 -0 -0 -0 -0 -0 -0 -0 -0 -0 -0 -0 -0 -0 -0 -0 -0 -0 -0 -0 -0 -0 -0 -0 -0 -0
-0 -0 -0 -0 -0 -0 -0 -0 -0 -0 -0 -0 -0 -0 -0 -0 -0 -0 -0 -0 -0 -0 -0 -0 -0 -0 -0 -0 -0 -0 -0 -0 -0 -0 -0 -0 -0 -0 -0 -0 -0 -0 -0
-0 -0 -0 -0 -0 -0 -0 -0 -0 -0 -0 -0 -0 -0 -0 -0 -0 -0 -0 -0 -0 -0 -0 -0 -0 -0 -0 -0 -0 -0 -0 -0 -0 -0 -0 -0 -0 -0 -0 -0 -0 -0 -0
-0 -0 -0 -0 -0 -0 -0 -0 -0 -0 -0 -0 -0 -0 -0 -0 -0 -0 -0 -0 -0 -0 -0 -0 -0 -0 -0 -0 -0 -0 -0 -0 -0 -0 -0 -0 -0 -0 -0 -0 -0 -0 -0
-0 -0 -0 -0 -0 -0 -0 -0 -0 -0 -0 -0 -0 -0 -0 -0 -0 -0 -0 -0 -0 -0 -0 -0 -0 -0 -0 -0 -0 -0 -0 -0 -0 -0 -0 -0 -0 -0 -0 -0 -0 -0 -0
Wind_Speed
15 16 19 21 22 21 23 24 24 24 19 17 4 8 10 9 7 8 12 14 13 13 11 9 10 8 9 8 8 5 6 2 5 4 3 4 4 3 3 4 4 4 4
21 20 21 20 21 20 20 21 21 21 18 14 14 14 7 10 10 9 9 13 14 12 12 12 10 11 8 9 8 9 4 3 6 4 4 2 2 1 1 4 5 7 4
21 22 22 21 20 20 20 20 20 20 18 20 16 15 10 5 7 5 5 6 13 14 15 15 12 11 10 10 10 11 11 4 3 11 6 3 5 3 1 2 4 5 5
14 17 21 21 20 19 19 18 19 19 17 17 16 18 12 14 10 10 10 9 9 13 13 15 14 13 9 11 10 10 10 6 8 1 2 2 5 4 3 2 3 4 5
15 17 18 20 19 18 18 19 19 18 18 16 14 12 15 15 15 9 14 14 11 12 13 13 15 15 12 12 11 10 12 10 9 7 4 2 1 2 4 5 5 1 3
15 15 16 17 19 19 18 19 20 20 18 16 16 16 18 18 14 15 12 11 9 10 14 14 14 15 14 14 12 12 13 11 10 8 6 5 4 3 4 3 7 8 3
14 16 19 19 18 21 20 18 20 22 19 18 16 15 17 16 15 17 14 13 12 12 14 15 14 12 15 14 14 13 13 13 11 13 8 4 4 4 3 4 3 4 3
13 15 17 17 18 20 21 20 21 21 20 18 19 15 14 12 13 14 15 13 12 13 16 15 16 15 16 15 15 11 11 12 11 13 11 6 7 4 4 5 5 2 1
15 15 16 15 17 18 20 21 23 22 19 20 16 17 14 14 16 19 13 19 15 13 17 18 19 18 16 15 16 12 13 14 11 12 11 9 7 6 5 4 5 6 5
15 15 15 16 15 16 17 19 19 21 19 19 16 14 17 15 16 18 17 19 16 17 17 18 19 17 17 17 16 14 15 14 12 9 12 11 7 9 6 5 4 4 5
13 15 15 16 16 16 16 18 18 20 20 17 16 17 16 16 15 18 16 16 16 21 19 17 17 18 18 17 17 16 16 17 15 14 13 13 10 8 7 5 4 5 5
9 13 15 16 17 17 17 17 18 17 18 17 17 16 16 16 16 15 18 17 16 14 20 19 18 16 18 18 19 18 16 18 17 16 14 12 8 11 9 7 9 9 6
13 14 16 16 17 17 17 18 18 18 17 15 16 16 15 15 15 17 15 16 16 17 14 18 20 18 17 18 19 19 17 17 15 14 15 16 12 11 8 9 8 6 5
13 15 15 16 17 17 17 18 19 18 17 16 15 16 15 15 15 16 15 14 15 11 17 17 18 18 17 18 18 19 19 18 16 16 15 15 15 16 12 11 11 7 7
16 16 17 17 17 18 18 19 19 19 17 17 17 16 16 15 15 15 13 13 12 9 14 17 17 18 17 14 18 19 18 18 17 16 16 15 14 16 14 11 11 10 9
16 17 18 18 18 19 19 19 19 19 18 17 16 16 15 15 14 13 12 11 10 9 13 19 18 18 14 21 23 20 17 17 17 16 15 14 16 17 16 16 15 15 13
15 17 17 16 17 18 18 19 19 18 18 16 17 16 15 15 14 13 11 8 6 5 13 14 16 18 19 22 27 23 15 16 16 16 15 14 11 16 14 16 15 16 17
15 15 14 16 17 16 18 19 18 17 17 17 18 17 16 15 13 12 10 6 4 3 3 8 16 16 13 19 27 26 18 14 16 16 16 16 14 15 13 12 13 12 12
12 13 13 15 15 16 19 18 18 18 18 19 19 18 17 16 15 13 11 9 8 5 7 5 11 15 13 24 20 20 14 13 13 11 12 13 13 15 16 13 12 11 10
11 13 15 15 15 17 18 17 18 18 20 20 19 18 17 16 15 14 13 9 7 7 8 10 7 13 8 4 21 16 9 10 9 8 8 13 12 16 18 13 11 11 10
14 14 14 14 15 16 17 17 17 19 20 19 17 18 16 15 15 15 13 14 11 10 11 13 10 11 15 12 5 13 10 9 8 8 7 7 13 16 18 17 11 11 8
15 15 14 14 15 15 16 17 18 19 19 19 17 17 15 13 13 16 15 15 14 14 13 10 9 7 8 17 17 8 6 11 10 9 7 8 16 15 16 15 12 12 11
13 13 13 14 14 15 15 17 18 19 19 17 16 16 16 16 16 15 14 11 12 11 11 10 9 11 10 11 19 15 3 9 7 7 10 12 16 15 12 14 14 14 6
13 13 14 14 15 16 16 15 17 18 18 18 16 15 16 17 16 12 12 12 13 12 12 12 12 10 9 9 7 8 7 7 6 7 7 7 7 7 7 8 9 7 7
12 12 12 13 15 16 16 16 18 18 17 16 14 15 14 15 14 13 12 12 14 17 11 11 10 11 11 13 17 16 8 6 8 9 6 5 5 5 5 4 4 4 4
11 11 12 13 14 15 15 17 17 17 16 15 12 13 12 11 12 11 11 23 26 29 30 30 22 11 23 25 25 27 24 22 18 11 8 7 6 7 6 6 5 4 6
Wind_Direction
347 355 357 354 353 356 355 352 350 348 348 346 233 213 208 208 209 212 189 188 180 174 165 168 167 170 175 174 173 153 157 121 137 116 66 52 49 114 170 156 156 165 165
358 355 355 356 354 348 348 347 345 344 343 337 325 298 210 209 212 210 209 189 182 170 167 168 175 175 176 176 182 178 134 130 172 125 108 120 353 32 133 171 186 189 163
352 349 349 351 348 346 345 340 338 337 336 343 331 332 278 201 201 195 220 206 190 175 178 176 173 179 180 186 186 183 171 143 216 157 144 138 207 130 194 212 182 171 172
354 346 343 345 345 340 336 335 334 334 336 335 331 327 293 294 210 199 203 198 194 192 181 177 175 176 184 191 190 189 170 139 181 137 134 142 145 162 168 255 223 195 182
348 344 342 338 337 337 335 333 329 329 331 330 327 323 313 291 313 205 198 202 198 191 189 178 181 182 179 188 190 186 179 178 179 182 139 143 172 142 140 173 182 218 233
343 339 338 337 334 336 335 333 328 327 326 325 322 321 316 322 305 296 186 193 197 194 188 183 181 188 184 179 185 192 190 187 185 186 179 166 166 182 153 125 182 192 212
341 340 340 339 337 334 334 330 327 322 322 318 316 314 308 301 278 274 257 189 197 197 193 182 188 187 189 179 186 189 194 186 186 187 186 160 173 158 156 131 151 146 192
339 336 335 333 332 330 328 326 325 318 317 315 313 310 304 297 295 292 286 212 199 198 191 188 186 194 198 188 185 183 189 192 190 187 194 185 191 167 164 151 138 95 171
336 333 331 329 327 327 324 322 320 316 312 310 307 303 300 292 291 290 288 260 194 194 193 195 195 193 194 194 186 186 194 195 185 186 187 197 199 194 183 164 151 148 173
329 330 329 328 323 322 320 317 314 311 311 309 306 300 299 292 285 280 279 294 200 187 189 192 197 195 193 190 188 189 192 194 197 183 189 199 193 199 192 176 159 154 157
322 329 328 326 320 321 322 319 316 313 311 312 307 302 297 294 288 282 281 270 245 182 177 184 190 190 191 192 190 192 190 193 203 196 181 196 186 192 192 175 166 170 153
316 326 327 326 321 325 323 322 316 311 307 309 307 301 299 298 291 276 272 266 276 207 182 180 184 191 194 191 191 191 191 193 198 199 190 191 178 188 186 184 189 190 179
330 334 333 330 324 324 324 322 316 310 303 308 307 309 308 296 293 287 283 283 275 207 190 185 184 190 198 197 197 196 193 194 194 194 195 197 184 190 191 189 188 186 181
335 334 333 327 328 323 325 321 318 313 313 314 311 311 310 303 298 285 279 268 262 267 191 193 186 187 191 201 198 198 195 194 194 193 201 199 196 206 192 190 191 180 176
341 336 331 328 327 326 326 325 318 319 320 319 321 318 316 311 295 286 281 269 267 261 221 191 194 189 191 196 199 199 197 195 195 197 200 198 193 201 198 189 192 183 194
336 333 331 327 330 327 326 323 322 323 323 323 322 322 320 309 301 297 282 264 250 251 250 203 189 190 192 189 189 194 194 191 190 193 196 197 195 202 197 194 195 190 191
331 332 328 328 327 325 326 325 324 324 325 324 328 330 326 312 322 310 293 285 273 280 249 201 190 190 198 186 187 186 193 190 192 192 189 192 192 198 198 201 195 198 194
330 331 326 327 325 324 329 327 329 331 328 330 335 338 327 326 329 318 316 320 314 288 273 245 202 191 182 176 186 180 189 189 192 194 191 187 183 187 185 190 200 207 205
326 325 328 324 324 331 331 332 334 332 337 337 335 340 334 330 340 339 336 354 1 14 17 353 221 193 185 167 181 179 184 179 187 185 186 188 180 176 180 186 196 200 205
329 328 332 326 332 335 333 337 337 338 339 334 331 342 338 338 342 351 357 3 8 23 54 41 26 59 66 78 169 177 160 174 178 169 170 175 174 168 179 190 189 195 201
335 340 334 333 334 335 335 343 338 341 332 330 334 348 340 344 344 0 8 12 18 23 47 55 26 39 32 34 63 183 171 177 173 173 172 176 172 173 182 193 192 200 172
342 344 337 334 334 338 339 342 342 335 333 335 343 348 343 348 353 7 13 10 16 23 37 44 42 13 28 33 28 33 195 176 170 176 179 180 180 179 185 188 187 170 166
341 343 338 333 338 341 342 340 336 338 335 339 343 354 348 358 360 5 11 18 24 24 33 31 34 20 13 17 12 29 52 180 176 180 167 169 176 179 186 186 182 176 172
345 340 339 339 338 342 339 339 341 339 339 343 347 353 353 5 6 3 11 17 20 17 25 27 25 21 24 28 0 15 30 59 103 130 151 168 154 170 166 167 179 177 171
341 341 338 337 334 336 337 345 346 342 343 344 351 357 353 4 2 8 8 19 23 27 28 32 26 27 27 26 32 36 38 50 81 94 83 92 98 101 92 81 84 89 100
334 337 337 333 332 335 337 345 348 345 345 346 354 359 356 1 3 3 3 17 24 26 35 34 39 33 41 38 37 43 47 58 73 67 65 65 72 89 92 94 86 70 97